Lexington Weather

Lexington, Massachusetts, USA

44°F
9/20/2020 10:21pm 
  • Lexington Conditions: Clear
  • Temperature: 43.9°F / 6.6°CColder 1.6°F than last hour.
  • Dew Point: 37.4°FDecreased 0.9°Fsince last hour.
  • Relative Humidity: 78%Increased 2.0% since last hour.
  • Wind: Calm, 10-min avg: Calm, gust: None
  • Barometer: 30.52 in Steady
  • Visibility: 10 miles
  • Rain Today: 0.00 in
  •   
Southeast Middlesex County - Special Weather Statement - Special Weather Statement
 - SEE ALL NEARBY ALERTS -

Regional Weather Roundup
for Boston / Norton, MA

        
000
ASUS41 KBOX 170204
RWRBOX

REGIONAL WEATHER ROUNDUP
NATIONAL WEATHER SERVICE BOSTON/NORTON MA
1000 PM EDT WED SEP 16 2020

NOTE:  "FAIR" INDICATES FEW OR NO CLOUDS BELOW 12,000 FEET WITH NO 
SIGNIFICANT WEATHER AND/OR OBSTRUCTIONS TO VISIBILITY.

MAZALL-170300-
EASTERN MASSACHUSETTS
  
CITY           SKY/WX    TMP DP  RH WIND       PRES   REMARKS
BOSTON         MOCLDY    63  54  72 S15       30.09F                  
BEVERLY        CLEAR     65  54  67 SW15G22   30.08S                  
LAWRENCE       CLEAR     63  54  72 SW10      30.10R                  
BEDFORD        CLEAR     63  54  72 SW15      30.07F                  
BLUE HILL        N/A     60  54  80 S20G28    30.10S                  
NORWOOD        CLEAR     64  55  72 S10       30.10F                  
MARSHFIELD     MOCLDY    64  59  82 SW9       30.11S                  
PLYMOUTH       CLEAR     62  58  86 SW9       30.13S                  
TAUNTON        CLEAR     61  56  83 S3        30.13S                  
NEW BEDFORD    CLEAR     61  58  90 S5        30.13F                  
$$

MAZALL-170300-
CAPE COD AND THE ISLANDS
  
CITY           SKY/WX    TMP DP  RH WIND       PRES   REMARKS
FALMOUTH       PTCLDY    64  57  77 SW14      30.14F                  
HYANNIS        PTCLDY    67  59  75 SW13      30.13F                  
CHATHAM        PTCLDY    66  60  81 SW8       30.15F                  
PROVINCETOWN   CLEAR     64  59  83 S14       30.13F                  
NANTUCKET      MOCLDY    67  62  84 S9        30.16F                  
MARTHAS VNYRD  PTCLDY    67  59  75 SW12      30.15F                  
$$
 
MAZALL-170300-
CENTRAL AND WESTERN MASSACHUSETTS
  
CITY           SKY/WX    TMP DP  RH WIND       PRES   REMARKS
WORCESTER      CLEAR     60  53  77 SW18G28   30.10F                  
FITCHBURG      CLEAR     63  53  70 SE6       30.09S                  
ORANGE         CLEAR     61  54  77 SW8       30.10S                  
SPRINGFIELD    MOCLDY    61  53  76 S6        30.09F                  
WESTFIELD      CLEAR     60  54  80 S8        30.10S                  
NORTH ADAMS    CLEAR     62  50  64 SW13G20   30.07F                  
PITTSFIELD     CLEAR     55  50  83 CALM      30.10R                  
$$
 
RIZALL-170300-
RHODE ISLAND
  
CITY           SKY/WX    TMP DP  RH WIND       PRES   REMARKS
PROVIDENCE     PTCLDY    61  57  87 S7        30.14F                  
NEWPORT        CLEAR     66  59  78 S7        30.14S                  
BLOCK ISLAND   PTCLDY    66  59  78 SW12      30.16S                  
SMITHFIELD     CLEAR     59  58  96 VRB5      30.13F                  
WESTERLY       CLOUDY    67  58  72 S9        30.15S                  
$$
 
CTZALL-170300-
CONNECTICUT
  
CITY           SKY/WX    TMP DP  RH WIND       PRES   REMARKS
BRADLEY INTL   MOCLDY    61  54  77 S8        30.10F                  
HARTFORD       CLEAR     60  54  80 S3        30.12F                  
BRIDGEPORT     CLEAR     69  57  65 SW16      30.12F                  
DANBURY        CLEAR     60  55  83 S6        30.14S                  
GROTON         MOCLDY    67  60  78 S15       30.13F                  
NEW HAVEN      CLEAR     70  58  65 S13G20    30.13F                  
CHESTER        NOT AVBL                                               
MERIDEN        CLEAR     56  53  90 CALM      30.12F                  
WILLIMANTIC    CLEAR     57  53  86 CALM      30.14S                  
OXFORD         CLEAR     59  56  89 SW5       30.15S                  
$$

MEZ002-015-021-024-NHZ003-005-008-011-012-014-VTZ005-008-170300-
NORTHERN NEW ENGLAND
  
CITY           SKY/WX    TMP DP  RH WIND       PRES   REMARKS
PORTLAND ME    CLEAR     64  54  69 S7        30.03S                  
BANGOR ME      PTCLDY    63  53  70 S16G23    29.96S                  
CONCORD NH     CLEAR     61  51  70 S7        30.06S                  
MANCHESTER NH  PTCLDY    64  53  67 S7        30.06R                  
NASHUA NH      CLEAR     63  57  81 VRB3      30.08R                  
PORTSMOUTH NH  PTCLDY    64  52  66 SW10      30.05R                  
JAFFREY NH     CLEAR     60  52  74 SW14G21   30.08F                  
KEENE NH       CLEAR     58  53  84 S8        30.08S                  
BURLINGTON VT  CLEAR     65  47  52 S17G26    29.96R                  
MT. WASHINGTON CLOUDY    46  18  31 W58G66      N/A                   
$$

NYZ052-076-170300-
EASTERN NEW YORK
  
CITY           SKY/WX    TMP DP  RH WIND       PRES   REMARKS
ALBANY         MOCLDY    59  50  72 S8        30.07R                  
NEW YORK CITY  MOCLDY    69  54  58 SW10      30.12S                  
$$
 
ANZALL-170300-
MARINE OBSERVATIONS
  
STATION/POSITION TIME  TEMP    WIND        PRES    VSBY  WAVE
                       AIR SEA DIR/SP/G                  HT/PER
                 (UTC) (F)     (DEG/KT/KT) (MB)    (MI)  (FT/S)
BOSTON BUOY      0150   65 64  190/ 16/ 19 1017.8F         3/10
BUZZARDS BAY     0100          220/ 13/ 15 1021.9R
NANTUCKET SOUND  0140      70  210/ 14/ 17   N/A
MASS BAY-STELLWA 0104   64     230/ 17/ 21 1016.7R  1 7/8  4/ 4
ISLE OF SHOALS   0100   64     200/ 22/ 23 1017.3R
S OF BLOCK IS    0126      70                N/A           4/10
$$

......................KEY.........................
  SKY/WX - SKY CONDITION/PRESENT WEATHER
  TMP    - TEMPERATURE IN FAHRENHEIT
  DWPT   - DEWPOINT IN FAHRENHEIT
  RH     - RELATIVE HUMIDITY IN PERCENT
  WIND   - DIRECTION AND SPEED IN MPH
  PRES   - MEAN SEA LEVEL PRESSURE IN INCHES OF HG
  WCI    - WIND CHILL INDEX
  VSB    - VISIBILITY IN MILES
  HX     - HEAT INDEX
  TC     - TEMPERATURE IN CELSIUS
  VRB    - VARIABLE WIND DIRECTION
  N/A    - NOT AVAILABLE
  
      

Other recent Regional Weather Roundups

Sun Sep 20, 10:04pm

Sun Sep 20, 9:04pm

Sun Sep 20, 8:05pm

Sun Sep 20, 7:04pm

Sun Sep 20, 6:04pm

Sun Sep 20, 5:04pm

Sun Sep 20, 4:04pm

Sun Sep 20, 3:05pm

Sun Sep 20, 2:05pm

Sun Sep 20, 1:04pm

Sun Sep 20, 12:04pm

Sun Sep 20, 11:04am

Sun Sep 20, 10:04am

Sun Sep 20, 9:04am

Sun Sep 20, 8:04am

Sun Sep 20, 7:04am

Sun Sep 20, 6:04am

Sun Sep 20, 5:04am

Sun Sep 20, 4:04am

Sun Sep 20, 3:05am

Sun Sep 20, 2:04am

Sun Sep 20, 1:04am

Sun Sep 20, 12:04am

Sat Sep 19, 11:04pm

Sat Sep 19, 10:04pm

Sat Sep 19, 9:04pm

Sat Sep 19, 8:05pm

Sat Sep 19, 7:04pm

Sat Sep 19, 6:05pm

Sat Sep 19, 5:04pm

Sat Sep 19, 4:04pm

Sat Sep 19, 3:04pm

Sat Sep 19, 2:04pm

Sat Sep 19, 1:05pm

Sat Sep 19, 12:04pm

Sat Sep 19, 11:04am

Sat Sep 19, 10:04am

Sat Sep 19, 9:05am

Sat Sep 19, 8:04am

Sat Sep 19, 7:04am

Sat Sep 19, 6:04am

Sat Sep 19, 5:04am

Sat Sep 19, 4:04am

Sat Sep 19, 3:04am

Sat Sep 19, 2:04am

Sat Sep 19, 1:04am

Sat Sep 19, 12:04am

Fri Sep 18, 11:05pm

Fri Sep 18, 10:04pm

Fri Sep 18, 9:04pm

Fri Sep 18, 8:04pm

Fri Sep 18, 7:04pm

Fri Sep 18, 6:04pm

Fri Sep 18, 5:05pm

Fri Sep 18, 4:04pm

Fri Sep 18, 3:05pm

Fri Sep 18, 2:04pm

Fri Sep 18, 1:04pm

Fri Sep 18, 12:04pm

Fri Sep 18, 11:05am

Fri Sep 18, 10:05am

Fri Sep 18, 9:04am

Fri Sep 18, 8:04am

Fri Sep 18, 7:04am

Fri Sep 18, 6:04am

Fri Sep 18, 5:04am

Fri Sep 18, 4:04am

Fri Sep 18, 3:04am

Fri Sep 18, 2:04am

Fri Sep 18, 1:04am

Fri Sep 18, 12:04am

Thu Sep 17, 11:05pm

Thu Sep 17, 10:04pm

Thu Sep 17, 9:04pm

Thu Sep 17, 8:05pm

Thu Sep 17, 7:04pm

Thu Sep 17, 6:04pm

Thu Sep 17, 5:04pm

Thu Sep 17, 4:04pm

Thu Sep 17, 3:05pm

Thu Sep 17, 2:04pm

Thu Sep 17, 1:04pm

Thu Sep 17, 12:04pm

Thu Sep 17, 11:04am

Thu Sep 17, 10:04am

Thu Sep 17, 9:04am

Thu Sep 17, 8:04am

Thu Sep 17, 7:04am

Thu Sep 17, 6:04am

Thu Sep 17, 5:04am

Thu Sep 17, 4:04am

Thu Sep 17, 3:04am

Thu Sep 17, 2:05am

Thu Sep 17, 1:05am

Thu Sep 17, 12:04am

Wed Sep 16, 11:04pm

Wed Sep 16, 9:04pm

Wed Sep 16, 8:05pm

Wed Sep 16, 7:04pm

Wed Sep 16, 6:04pm

Wed Sep 16, 5:04pm

Wed Sep 16, 4:04pm

Wed Sep 16, 3:04pm

Wed Sep 16, 2:04pm

Wed Sep 16, 1:04pm

Wed Sep 16, 12:04pm

Wed Sep 16, 11:04am

Wed Sep 16, 10:04am

Wed Sep 16, 9:04am

Wed Sep 16, 8:04am

Wed Sep 16, 7:04am

Wed Sep 16, 6:04am

Wed Sep 16, 5:04am

Wed Sep 16, 4:04am

Wed Sep 16, 3:04am

Wed Sep 16, 2:04am

Wed Sep 16, 1:04am

Wed Sep 16, 12:05am

Tue Sep 15, 11:04pm

Tue Sep 15, 10:04pm

Tue Sep 15, 9:04pm

Tue Sep 15, 8:04pm

Tue Sep 15, 7:04pm

Tue Sep 15, 6:04pm

Tue Sep 15, 5:04pm

Tue Sep 15, 4:05pm

Tue Sep 15, 3:04pm

Tue Sep 15, 2:04pm

Tue Sep 15, 1:04pm

Tue Sep 15, 12:04pm

Tue Sep 15, 11:04am

Tue Sep 15, 10:04am

Tue Sep 15, 9:04am

Tue Sep 15, 8:04am

Tue Sep 15, 7:04am

Tue Sep 15, 6:04am

Tue Sep 15, 5:04am

Tue Sep 15, 4:04am

Tue Sep 15, 3:04am

Tue Sep 15, 2:04am

Tue Sep 15, 1:04am

Tue Sep 15, 12:05am

Mon Sep 14, 11:04pm

Mon Sep 14, 10:04pm

Mon Sep 14, 9:04pm

Mon Sep 14, 8:04pm

Mon Sep 14, 7:04pm

Mon Sep 14, 6:04pm

Mon Sep 14, 5:04pm

Mon Sep 14, 4:05pm

Mon Sep 14, 3:04pm

Mon Sep 14, 2:05pm

Mon Sep 14, 1:04pm

Mon Sep 14, 12:04pm

Mon Sep 14, 11:04am

Mon Sep 14, 10:05am

Mon Sep 14, 9:04am

Mon Sep 14, 8:04am

Mon Sep 14, 7:04am

Mon Sep 14, 6:04am

Mon Sep 14, 5:04am

Mon Sep 14, 4:04am

Mon Sep 14, 3:04am

Mon Sep 14, 2:04am

Mon Sep 14, 1:04am

Mon Sep 14, 12:04am

Sun Sep 13, 11:05pm

Meta data:

ID: c9e9bce6-d16b-49a9-835b-7ddc1426639f
Link: https://api.weather.gov/products/c9e9bce6-d16b-49a9-835b-7ddc1426639f